LKPR Weather Reports


time (UTC)temp
F
wind
direction
speed
knots
gust
knots
rain 1hr
in
rain 24hr
in
rain mn
in
humidity
%
barometer
mb
20260505010203 55 330 2.6 0.0 0.00 0.00 0.00 87 1010.0
20260505003203 57 350 2.6 0.0 0.00 0.00 0.00 82 1010.0
20260505001802 57 50 4.3 0.0 0.00 0.00 0.00 76
20260505000204 57 70 4.3 0.0 0.00 0.00 0.00 82 1010.0
20260504233203 57 110 7.0 0.0 0.00 0.00 0.00 82 1011.0
20260504231805 61 120 10.4 0.0 0.00 0.00 0.00 67
20260504230202 59 120 8.7 0.0 0.00 0.00 0.00 77 1011.0
20260504224402 59 130 13.0 0.0 0.00 0.00 0.00 82 1011.0
20260504223202 59 130 15.6 0.0 0.00 0.00 0.00 77 1012.0
20260504221809 59 250 4.3 0.0 0.00 0.00 0.00 67
20260504221802 61 160 7.8 0.0 0.00 0.00 0.00 72 1012.0
20260504220409 59 210 4.3 0.0 0.00 0.00 0.00 67 1012.0
20260504220201 59 230 2.6 0.0 0.00 0.00 0.00 67 1012.0
20260504213203 59 0 1.7 0.0 0.00 0.00 0.00 62 1012.0
20260504211801 61 10 4.3 0.0 0.00 0.00 0.00 55
20260504210204 61 20 4.3 0.0 0.00 0.00 0.00 59 1012.0
20260504203202 61 360 1.7 0.0 0.00 0.00 0.00 55 1012.0
20260504201800 63 100 1.7 0.0 0.00 0.00 0.00 51
20260504200202 63 100 5.2 0.0 0.00 0.00 0.00 51 1012.0
20260504193203 64 80 6.1 0.0 0.00 0.00 0.00 48 1012.0
20260504191804 66 70 6.1 0.0 0.00 0.00 0.00 45
20260504190203 64 80 5.2 0.0 0.00 0.00 0.00 52 1011.0
20260504183203 64 80 6.1 0.0 0.00 0.00 0.00 55 1011.0
20260504181806 68 80 6.1 0.0 0.00 0.00 0.00 42
20260504180202 68 80 4.3 0.0 0.00 0.00 0.00 45 1011.0
20260504173202 68 70 4.3 0.0 0.00 0.00 0.00 45 1011.0
20260504171806 70 70 6.1 0.0 0.00 0.00 0.00 43
20260504170203 70 60 5.2 0.0 0.00 0.00 0.00 43 1011.0
20260504160202 72 40 5.2 0.0 0.00 0.00 0.00 40 1012.0
20260504150202 72 30 4.3 0.0 0.00 0.00 0.00 40 1012.0
20260504140203 73 70 2.6 0.0 0.00 0.00 0.00 35 1013.0
20260504130203 72 0 2.6 0.0 0.00 0.00 0.00 40 1013.0
20260504120202 70 0 4.3 0.0 0.00 0.00 0.00 43 1014.0
20260504110203 66 20 5.2 0.0 0.00 0.00 0.00 45 1014.0
20260504100203 66 330 7.0 0.0 0.00 0.00 0.00 45 1015.0
20260504081801 61 360 4.3 0.0 0.00 0.00 0.00 51
20260504080203 61 350 4.3 0.0 0.00 0.00 0.00 55 1014.0
20260504070202 57 350 7.0 0.0 0.00 0.00 0.00 58 1014.0
20260504060202 54 290 2.6 0.0 0.00 0.00 0.00 71 1014.0
20260504050203 50 0 1.7 0.0 0.00 0.00 0.00 76 1013.0
20260504043202 52 120 4.3 0.0 0.00 0.00 0.00 71 1013.0
20260504041805 48 340 1.7 0.0 0.00 0.00 0.00 76
20260504040203 48 0 0.0 0.0 0.00 0.00 0.00 76 1013.0
20260504033202 50 0 1.7 0.0 0.00 0.00 0.00 71 1013.0
20260504031801 48 310 4.3 0.0 0.00 0.00 0.00 70
20260504030203 48 0 1.7 0.0 0.00 0.00 0.00 76 1013.0
20260504023202 48 230 4.3 0.0 0.00 0.00 0.00 81 1013.0
20260504021805 52 220 1.7 0.0 0.00 0.00 0.00 66
20260504020203 52 250 1.7 0.0 0.00 0.00 0.00 66 1013.0
20260504013202 54 80 2.6 0.0 0.00 0.00 0.00 62 1013.0
20260504011801 57 80 4.3 0.0 0.00 0.00 0.00 54